{"data":{"norad_id":65105,"intl_designator":"2025-167AD","name":"STARLINK-34545","alt_names":[],"object_type":"PAYLOAD","status":"ACTIVE","operator":null,"country":"US","launch_date":"2025-08-04","launch_site_code":"AFETR","launch_vehicle":null,"mission":null,"orbit_class":"UNKNOWN","rcs_meters":null,"size_class":null,"mass_kg":null,"dimensions":null,"purposes":["comms"],"wikipedia_slug":null,"has_3d_model":false,"image_url":null,"decayed_at":null,"tle_current":{"epoch":"2026-09-19T07:17:11.335488Z","epoch_age_seconds":223842,"freshness":"STALE","line1":"1 65105U 25167AD  26262.30360342  .00016001  00000+0  48347-3 0  9993","line2":"2 65105  53.1575 199.4756 0001272  80.2068 279.9079 15.34413670 63233","mean_motion":15.3441367,"eccentricity":0.0001272,"inclination_deg":53.1575,"raan_deg":199.4756,"arg_perigee_deg":80.2068,"mean_anomaly_deg":279.9079,"bstar":0.00048347,"rev_number":6323,"period_min":93.846921997247,"perigee_km":461.79246067749,"apogee_km":463.53276009837,"semimajor_km":6840.7996103879,"source":"CELESTRAK","updated_at":"2026-09-21T09:00:35.527014Z"}}}